owner,sensor,date,latitude,longitude,vertical_datum,sea_water_practical_salinity,qcFlag 
NERRS,ioos:station:NOAA.NERRS:apaebwq:1,2016-06-01T00:45:00Z,29.7858,-84.8752,1.78,3.1,1111122 
NERRS,ioos:station:NOAA.NERRS:apaebwq:1,2016-06-01T01:45:00Z,29.7858,-84.8752,1.86,3.1,1111122 
NERRS,ioos:station:NOAA.NERRS:apaebwq:1,2016-06-01T02:45:00Z,29.7858,-84.8752,1.97,3.2,1111122 
NERRS,ioos:station:NOAA.NERRS:apaebwq:1,2016-06-01T03:45:00Z,29.7858,-84.8752,2.07,3.2,1111122 
NERRS,ioos:station:NOAA.NERRS:apaebwq:1,2016-06-01T04:45:00Z,29.7858,-84.8752,2.14,3.3,1111122 
NERRS,ioos:station:NOAA.NERRS:apaebwq:1,2016-06-01T05:45:00Z,29.7858,-84.8752,2.19,3.4,1111122 
NERRS,ioos:station:NOAA.NERRS:apaebwq:1,2016-06-01T07:45:00Z,29.7858,-84.8752,2.07,3.5,1111122 
NERRS,ioos:station:NOAA.NERRS:apaebwq:1,2016-06-01T08:45:00Z,29.7858,-84.8752,1.98,3.4,1111122 
NERRS,ioos:station:NOAA.NERRS:apaebwq:1,2016-06-01T09:45:00Z,29.7858,-84.8752,1.92,3.2,1111122 
NERRS,ioos:station:NOAA.NERRS:apaebwq:1,2016-06-01T10:45:00Z,29.7858,-84.8752,1.88,3.2,1111122 
NERRS,ioos:station:NOAA.NERRS:apaebwq:1,2016-06-01T11:45:00Z,29.7858,-84.8752,1.87,3.2,1111122 
NERRS,ioos:station:NOAA.NERRS:apaebwq:1,2016-06-01T13:45:00Z,29.7858,-84.8752,2.02,3.3,1111122 
NERRS,ioos:station:NOAA.NERRS:apaebwq:1,2016-06-01T14:45:00Z,29.7858,-84.8752,2.15,3.4,1111122 
NERRS,ioos:station:NOAA.NERRS:apaebwq:1,2016-06-01T15:45:00Z,29.7858,-84.8752,2.24,3.5,1111122 
NERRS,ioos:station:NOAA.NERRS:apaebwq:1,2016-06-01T16:45:00Z,29.7858,-84.8752,2.3,3.4,1111122 
NERRS,ioos:station:NOAA.NERRS:apaebwq:1,2016-06-01T17:45:00Z,29.7858,-84.8752,2.27,3.4,1111122 
NERRS,ioos:station:NOAA.NERRS:apaebwq:1,2016-06-01T18:45:00Z,29.7858,-84.8752,2.2,3.4,1111122 
NERRS,ioos:station:NOAA.NERRS:apaebwq:1,2016-06-01T19:45:00Z,29.7858,-84.8752,2.1,3.3,1111122 
NERRS,ioos:station:NOAA.NERRS:apaebwq:1,2016-06-01T20:45:00Z,29.7858,-84.8752,1.99,3.3,1111122 
NERRS,ioos:station:NOAA.NERRS:apaebwq:1,2016-06-01T21:45:00Z,29.7858,-84.8752,1.89,3.3,1111122 
NERRS,ioos:station:NOAA.NERRS:apaebwq:1,2016-06-01T22:45:00Z,29.7858,-84.8752,1.8,3.1,1111122 
NERRS,ioos:station:NOAA.NERRS:apaebwq:1,2016-06-01T23:45:00Z,29.7858,-84.8752,1.71,3.0,1111122 
NERRS,ioos:station:NOAA.NERRS:apaebwq:1,2016-06-02T00:45:00Z,29.7858,-84.8752,1.66,2.8,1111122 
NERRS,ioos:station:NOAA.NERRS:apaebwq:1,2016-06-02T01:45:00Z,29.7858,-84.8752,1.67,2.9,1111122 
NERRS,ioos:station:NOAA.NERRS:apaebwq:1,2016-06-02T03:45:00Z,29.7858,-84.8752,1.9,2.9,1111122 
NERRS,ioos:station:NOAA.NERRS:apaebwq:1,2016-06-02T04:45:00Z,29.7858,-84.8752,2.04,3.1,1111122 
NERRS,ioos:station:NOAA.NERRS:apaebwq:1,2016-06-02T05:45:00Z,29.7858,-84.8752,2.13,3.2,1111122 
NERRS,ioos:station:NOAA.NERRS:apaebwq:1,2016-06-02T06:45:00Z,29.7858,-84.8752,2.21,3.4,1111122 
NERRS,ioos:station:NOAA.NERRS:apaebwq:1,2016-06-02T07:45:00Z,29.7858,-84.8752,2.2,3.3,1111122 
NERRS,ioos:station:NOAA.NERRS:apaebwq:1,2016-06-02T08:45:00Z,29.7858,-84.8752,2.14,3.4,1111122 
NERRS,ioos:station:NOAA.NERRS:apaebwq:1,2016-06-02T09:45:00Z,29.7858,-84.8752,2.04,3.3,1111122 
NERRS,ioos:station:NOAA.NERRS:apaebwq:1,2016-06-02T10:45:00Z,29.7858,-84.8752,1.96,3.3,1111122 
NERRS,ioos:station:NOAA.NERRS:apaebwq:1,2016-06-02T11:45:00Z,29.7858,-84.8752,1.91,3.2,1111122 
NERRS,ioos:station:NOAA.NERRS:apaebwq:1,2016-06-02T12:45:00Z,29.7858,-84.8752,1.92,3.3,1111122 
NERRS,ioos:station:NOAA.NERRS:apaebwq:1,2016-06-02T13:45:00Z,29.7858,-84.8752,1.96,3.3,1111122 
NERRS,ioos:station:NOAA.NERRS:apaebwq:1,2016-06-02T14:45:00Z,29.7858,-84.8752,2.05,3.3,1111122 
NERRS,ioos:station:NOAA.NERRS:apaebwq:1,2016-06-02T15:45:00Z,29.7858,-84.8752,2.18,3.3,1111122 
NERRS,ioos:station:NOAA.NERRS:apaebwq:1,2016-06-02T16:45:00Z,29.7858,-84.8752,2.29,3.3,1111122 
NERRS,ioos:station:NOAA.NERRS:apaebwq:1,2016-06-02T17:45:00Z,29.7858,-84.8752,2.31,3.2,1111122 
NERRS,ioos:station:NOAA.NERRS:apaebwq:1,2016-06-02T18:45:00Z,29.7858,-84.8752,2.25,3.2,1111122 
NERRS,ioos:station:NOAA.NERRS:apaebwq:1,2016-06-02T19:45:00Z,29.7858,-84.8752,2.14,3.2,1111122 
NERRS,ioos:station:NOAA.NERRS:apaebwq:1,2016-06-02T20:45:00Z,29.7858,-84.8752,2.04,3.2,1111122 
NERRS,ioos:station:NOAA.NERRS:apaebwq:1,2016-06-02T21:45:00Z,29.7858,-84.8752,1.92,3.3,1111122 
NERRS,ioos:station:NOAA.NERRS:apaebwq:1,2016-06-02T22:45:00Z,29.7858,-84.8752,1.8,3.1,1111122 
NERRS,ioos:station:NOAA.NERRS:apaebwq:1,2016-06-02T23:45:00Z,29.7858,-84.8752,1.7,3.0,1111122 
NERRS,ioos:station:NOAA.NERRS:apaebwq:1,2016-06-03T00:45:00Z,29.7858,-84.8752,1.63,2.9,1111122 
NERRS,ioos:station:NOAA.NERRS:apaebwq:1,2016-06-03T01:45:00Z,29.7858,-84.8752,1.6,2.7,1111122 
NERRS,ioos:station:NOAA.NERRS:apaebwq:1,2016-06-03T02:45:00Z,29.7858,-84.8752,1.64,2.8,1111122 
NERRS,ioos:station:NOAA.NERRS:apaebwq:1,2016-06-03T03:45:00Z,29.7858,-84.8752,1.76,3.0,1111122 
NERRS,ioos:station:NOAA.NERRS:apaebwq:1,2016-06-03T04:45:00Z,29.7858,-84.8752,1.92,2.9,1111122 
NERRS,ioos:station:NOAA.NERRS:apaebwq:1,2016-06-03T05:45:00Z,29.7858,-84.8752,2.07,3.1,1111122 
NERRS,ioos:station:NOAA.NERRS:apaebwq:1,2016-06-03T06:45:00Z,29.7858,-84.8752,2.19,3.3,1111122 
NERRS,ioos:station:NOAA.NERRS:apaebwq:1,2016-06-03T07:45:00Z,29.7858,-84.8752,2.27,3.2,1111122 
NERRS,ioos:station:NOAA.NERRS:apaebwq:1,2016-06-03T08:45:00Z,29.7858,-84.8752,2.27,3.2,1111122 
NERRS,ioos:station:NOAA.NERRS:apaebwq:1,2016-06-03T09:45:00Z,29.7858,-84.8752,2.2,3.2,1111122 
NERRS,ioos:station:NOAA.NERRS:apaebwq:1,2016-06-03T11:45:00Z,29.7858,-84.8752,2.04,3.2,1111122 
NERRS,ioos:station:NOAA.NERRS:apaebwq:1,2016-06-03T12:45:00Z,29.7858,-84.8752,1.99,3.2,1111122 
NERRS,ioos:station:NOAA.NERRS:apaebwq:1,2016-06-03T13:45:00Z,29.7858,-84.8752,1.96,3.2,1111122 
NERRS,ioos:station:NOAA.NERRS:apaebwq:1,2016-06-03T14:45:00Z,29.7858,-84.8752,2.02,3.3,1111122 
NERRS,ioos:station:NOAA.NERRS:apaebwq:1,2016-06-03T15:45:00Z,29.7858,-84.8752,2.16,3.3,1111122 
NERRS,ioos:station:NOAA.NERRS:apaebwq:1,2016-06-03T16:45:00Z,29.7858,-84.8752,2.29,3.2,1111122 
NERRS,ioos:station:NOAA.NERRS:apaebwq:1,2016-06-03T17:45:00Z,29.7858,-84.8752,2.36,3.1,1111122 
NERRS,ioos:station:NOAA.NERRS:apaebwq:1,2016-06-03T18:45:00Z,29.7858,-84.8752,2.33,3.1,1111122 
NERRS,ioos:station:NOAA.NERRS:apaebwq:1,2016-06-03T19:45:00Z,29.7858,-84.8752,2.25,3.1,1111122 
NERRS,ioos:station:NOAA.NERRS:apaebwq:1,2016-06-03T20:45:00Z,29.7858,-84.8752,2.14,3.1,1111122 
NERRS,ioos:station:NOAA.NERRS:apaebwq:1,2016-06-03T21:45:00Z,29.7858,-84.8752,2.03,3.1,1111122 
NERRS,ioos:station:NOAA.NERRS:apaebwq:1,2016-06-03T22:45:00Z,29.7858,-84.8752,1.89,3.1,1111122 
NERRS,ioos:station:NOAA.NERRS:apaebwq:1,2016-06-03T23:45:00Z,29.7858,-84.8752,1.77,3.0,1111122 
NERRS,ioos:station:NOAA.NERRS:apaebwq:1,2016-06-04T00:45:00Z,29.7858,-84.8752,1.66,2.9,1111122 
NERRS,ioos:station:NOAA.NERRS:apaebwq:1,2016-06-04T01:45:00Z,29.7858,-84.8752,1.59,2.9,1111122 
NERRS,ioos:station:NOAA.NERRS:apaebwq:1,2016-06-04T02:45:00Z,29.7858,-84.8752,1.55,2.8,1111122 
NERRS,ioos:station:NOAA.NERRS:apaebwq:1,2016-06-04T03:45:00Z,29.7858,-84.8752,1.6,2.8,1111122 
NERRS,ioos:station:NOAA.NERRS:apaebwq:1,2016-06-04T04:45:00Z,29.7858,-84.8752,1.74,3.0,1111122 
NERRS,ioos:station:NOAA.NERRS:apaebwq:1,2016-06-04T05:45:00Z,29.7858,-84.8752,1.92,3.0,1111122 
NERRS,ioos:station:NOAA.NERRS:apaebwq:1,2016-06-04T06:45:00Z,29.7858,-84.8752,2.07,3.1,1111122 
NERRS,ioos:station:NOAA.NERRS:apaebwq:1,2016-06-04T07:45:00Z,29.7858,-84.8752,2.2,3.0,1111122 
NERRS,ioos:station:NOAA.NERRS:apaebwq:1,2016-06-04T08:45:00Z,29.7858,-84.8752,2.26,3.0,1111122 
NERRS,ioos:station:NOAA.NERRS:apaebwq:1,2016-06-04T09:45:00Z,29.7858,-84.8752,2.28,3.1,1111122 
NERRS,ioos:station:NOAA.NERRS:apaebwq:1,2016-06-04T10:45:00Z,29.7858,-84.8752,2.24,3.1,1111122 
NERRS,ioos:station:NOAA.NERRS:apaebwq:1,2016-06-04T11:45:00Z,29.7858,-84.8752,2.17,3.1,1111122 
NERRS,ioos:station:NOAA.NERRS:apaebwq:1,2016-06-04T12:45:00Z,29.7858,-84.8752,2.12,3.0,1111122 
NERRS,ioos:station:NOAA.NERRS:apaebwq:1,2016-06-04T13:45:00Z,29.7858,-84.8752,2.09,3.0,1111122 
NERRS,ioos:station:NOAA.NERRS:apaebwq:1,2016-06-04T14:45:00Z,29.7858,-84.8752,2.05,3.0,1111122 
NERRS,ioos:station:NOAA.NERRS:apaebwq:1,2016-06-04T15:45:00Z,29.7858,-84.8752,2.08,3.0,1111122 
NERRS,ioos:station:NOAA.NERRS:apaebwq:1,2016-06-04T16:45:00Z,29.7858,-84.8752,2.21,2.9,1111122 
NERRS,ioos:station:NOAA.NERRS:apaebwq:1,2016-06-04T17:45:00Z,29.7858,-84.8752,2.33,3.1,1111122 
NERRS,ioos:station:NOAA.NERRS:apaebwq:1,2016-06-04T18:45:00Z,29.7858,-84.8752,2.35,3.2,1111122 
NERRS,ioos:station:NOAA.NERRS:apaebwq:1,2016-06-04T19:45:00Z,29.7858,-84.8752,2.31,3.3,1111122 
NERRS,ioos:station:NOAA.NERRS:apaebwq:1,2016-06-04T20:45:00Z,29.7858,-84.8752,2.21,3.1,1111122 
NERRS,ioos:station:NOAA.NERRS:apaebwq:1,2016-06-04T21:45:00Z,29.7858,-84.8752,2.11,3.0,1111122 
NERRS,ioos:station:NOAA.NERRS:apaebwq:1,2016-06-04T22:45:00Z,29.7858,-84.8752,1.99,3.0,1111122 
NERRS,ioos:station:NOAA.NERRS:apaebwq:1,2016-06-04T23:45:00Z,29.7858,-84.8752,1.86,3.0,1111122 
NERRS,ioos:station:NOAA.NERRS:apaebwq:1,2016-06-05T00:45:00Z,29.7858,-84.8752,1.75,3.0,1111122 
NERRS,ioos:station:NOAA.NERRS:apaebwq:1,2016-06-05T01:45:00Z,29.7858,-84.8752,1.65,2.9,1111122 
NERRS,ioos:station:NOAA.NERRS:apaebwq:1,2016-06-05T02:45:00Z,29.7858,-84.8752,1.58,2.8,1111122 
NERRS,ioos:station:NOAA.NERRS:apaebwq:1,2016-06-05T03:45:00Z,29.7858,-84.8752,1.53,2.8,1111122 
NERRS,ioos:station:NOAA.NERRS:apaebwq:1,2016-06-05T04:45:00Z,29.7858,-84.8752,1.6,2.8,1111122 
NERRS,ioos:station:NOAA.NERRS:apaebwq:1,2016-06-05T05:45:00Z,29.7858,-84.8752,1.75,2.9,1111122 
NERRS,ioos:station:NOAA.NERRS:apaebwq:1,2016-06-05T06:45:00Z,29.7858,-84.8752,1.92,3.0,1111122 
NERRS,ioos:station:NOAA.NERRS:apaebwq:1,2016-06-05T07:45:00Z,29.7858,-84.8752,2.08,3.0,1111122 
NERRS,ioos:station:NOAA.NERRS:apaebwq:1,2016-06-05T08:45:00Z,29.7858,-84.8752,2.21,2.9,1111122 
NERRS,ioos:station:NOAA.NERRS:apaebwq:1,2016-06-05T09:45:00Z,29.7858,-84.8752,2.29,3.0,1111122 
NERRS,ioos:station:NOAA.NERRS:apaebwq:1,2016-06-05T10:45:00Z,29.7858,-84.8752,2.28,3.0,1111122 
NERRS,ioos:station:NOAA.NERRS:apaebwq:1,2016-06-05T11:45:00Z,29.7858,-84.8752,2.19,3.0,1111122 
NERRS,ioos:station:NOAA.NERRS:apaebwq:1,2016-06-05T12:45:00Z,29.7858,-84.8752,2.1,3.0,1111122 
NERRS,ioos:station:NOAA.NERRS:apaebwq:1,2016-06-05T13:45:00Z,29.7858,-84.8752,2.08,3.0,1111122 
NERRS,ioos:station:NOAA.NERRS:apaebwq:1,2016-06-05T14:45:00Z,29.7858,-84.8752,2.14,3.0,1111122 
NERRS,ioos:station:NOAA.NERRS:apaebwq:1,2016-06-05T15:45:00Z,29.7858,-84.8752,2.17,3.0,1111122 
NERRS,ioos:station:NOAA.NERRS:apaebwq:1,2016-06-05T16:45:00Z,29.7858,-84.8752,2.19,2.9,1111122 
NERRS,ioos:station:NOAA.NERRS:apaebwq:1,2016-06-05T17:45:00Z,29.7858,-84.8752,2.29,2.9,1111122 
NERRS,ioos:station:NOAA.NERRS:apaebwq:1,2016-06-05T18:45:00Z,29.7858,-84.8752,2.36,3.1,1111122 
NERRS,ioos:station:NOAA.NERRS:apaebwq:1,2016-06-05T19:45:00Z,29.7858,-84.8752,2.39,3.1,1111122 
NERRS,ioos:station:NOAA.NERRS:apaebwq:1,2016-06-05T20:45:00Z,29.7858,-84.8752,2.35,3.2,1111122 
NERRS,ioos:station:NOAA.NERRS:apaebwq:1,2016-06-05T21:45:00Z,29.7858,-84.8752,2.26,3.1,1111122 
NERRS,ioos:station:NOAA.NERRS:apaebwq:1,2016-06-05T22:45:00Z,29.7858,-84.8752,2.15,2.9,1111122 
NERRS,ioos:station:NOAA.NERRS:apaebwq:1,2016-06-05T23:45:00Z,29.7858,-84.8752,2.01,2.9,1111122 
NERRS,ioos:station:NOAA.NERRS:apaebwq:1,2016-06-06T00:45:00Z,29.7858,-84.8752,1.88,2.9,1111122 
NERRS,ioos:station:NOAA.NERRS:apaebwq:1,2016-06-06T01:45:00Z,29.7858,-84.8752,1.77,2.8,1111122 
NERRS,ioos:station:NOAA.NERRS:apaebwq:1,2016-06-06T02:45:00Z,29.7858,-84.8752,1.68,2.6,1111122 
NERRS,ioos:station:NOAA.NERRS:apaebwq:1,2016-06-06T03:45:00Z,29.7858,-84.8752,1.64,2.7,1111122 
NERRS,ioos:station:NOAA.NERRS:apaebwq:1,2016-06-06T04:45:00Z,29.7858,-84.8752,1.72,2.7,1111122 
NERRS,ioos:station:NOAA.NERRS:apaebwq:1,2016-06-06T05:45:00Z,29.7858,-84.8752,1.86,2.8,1111122 
NERRS,ioos:station:NOAA.NERRS:apaebwq:1,2016-06-06T06:45:00Z,29.7858,-84.8752,2.03,2.9,1111122 
NERRS,ioos:station:NOAA.NERRS:apaebwq:1,2016-06-06T07:45:00Z,29.7858,-84.8752,2.2,2.8,1111122 
NERRS,ioos:station:NOAA.NERRS:apaebwq:1,2016-06-06T08:45:00Z,29.7858,-84.8752,2.34,2.9,1111122 
NERRS,ioos:station:NOAA.NERRS:apaebwq:1,2016-06-06T09:45:00Z,29.7858,-84.8752,2.43,3.1,1111122 
NERRS,ioos:station:NOAA.NERRS:apaebwq:1,2016-06-06T10:45:00Z,29.7858,-84.8752,2.51,3.3,1111122 
NERRS,ioos:station:NOAA.NERRS:apaebwq:1,2016-06-06T11:45:00Z,29.7858,-84.8752,2.53,3.7,1111122 
NERRS,ioos:station:NOAA.NERRS:apaebwq:1,2016-06-06T12:45:00Z,29.7858,-84.8752,2.5,4.6,1111122 
NERRS,ioos:station:NOAA.NERRS:apaebwq:1,2016-06-06T13:45:00Z,29.7858,-84.8752,2.49,4.6,1111122 
NERRS,ioos:station:NOAA.NERRS:apaebwq:1,2016-06-06T14:45:00Z,29.7858,-84.8752,2.51,4.4,1111122 
NERRS,ioos:station:NOAA.NERRS:apaebwq:1,2016-06-06T15:45:00Z,29.7858,-84.8752,2.53,4.1,1111122 
NERRS,ioos:station:NOAA.NERRS:apaebwq:1,2016-06-06T16:45:00Z,29.7858,-84.8752,2.58,4.6,1111122 
NERRS,ioos:station:NOAA.NERRS:apaebwq:1,2016-06-06T17:45:00Z,29.7858,-84.8752,2.6,5.2,1111122 
NERRS,ioos:station:NOAA.NERRS:apaebwq:1,2016-06-06T18:45:00Z,29.7858,-84.8752,2.61,5.5,1111122 
NERRS,ioos:station:NOAA.NERRS:apaebwq:1,2016-06-06T19:45:00Z,29.7858,-84.8752,2.67,6.2,1111122 
NERRS,ioos:station:NOAA.NERRS:apaebwq:1,2016-06-06T21:45:00Z,29.7858,-84.8752,2.71,6.7,1111122 
NERRS,ioos:station:NOAA.NERRS:apaebwq:1,2016-06-06T22:45:00Z,29.7858,-84.8752,2.58,6.1,1111122 
NERRS,ioos:station:NOAA.NERRS:apaebwq:1,2016-06-06T23:45:00Z,29.7858,-84.8752,2.44,4.2,1111122 
NERRS,ioos:station:NOAA.NERRS:apaebwq:1,2016-06-07T00:45:00Z,29.7858,-84.8752,2.32,3.1,1111122 
NERRS,ioos:station:NOAA.NERRS:apaebwq:1,2016-06-07T01:45:00Z,29.7858,-84.8752,2.21,3.8,1111122 
NERRS,ioos:station:NOAA.NERRS:apaebwq:1,2016-06-07T02:45:00Z,29.7858,-84.8752,2.1,3.0,1111122 
NERRS,ioos:station:NOAA.NERRS:apaebwq:1,2016-06-07T03:45:00Z,29.7858,-84.8752,1.99,2.9,1111122 
NERRS,ioos:station:NOAA.NERRS:apaebwq:1,2016-06-07T04:45:00Z,29.7858,-84.8752,1.9,2.8,1111122 
NERRS,ioos:station:NOAA.NERRS:apaebwq:1,2016-06-07T05:45:00Z,29.7858,-84.8752,1.9,2.7,1111122 
NERRS,ioos:station:NOAA.NERRS:apaebwq:1,2016-06-07T06:45:00Z,29.7858,-84.8752,2.02,3.0,1111122 
NERRS,ioos:station:NOAA.NERRS:apaebwq:1,2016-06-07T07:45:00Z,29.7858,-84.8752,2.18,6.1,1111122 
NERRS,ioos:station:NOAA.NERRS:apaebwq:1,2016-06-07T08:45:00Z,29.7858,-84.8752,2.31,7.5,1111122 
NERRS,ioos:station:NOAA.NERRS:apaebwq:1,2016-06-07T09:45:00Z,29.7858,-84.8752,2.4,7.4,1111122 
NERRS,ioos:station:NOAA.NERRS:apaebwq:1,2016-06-07T10:45:00Z,29.7858,-84.8752,2.44,7.3,1111122 
NERRS,ioos:station:NOAA.NERRS:apaebwq:1,2016-06-07T11:45:00Z,29.7858,-84.8752,2.41,7.9,1111122 
NERRS,ioos:station:NOAA.NERRS:apaebwq:1,2016-06-07T12:45:00Z,29.7858,-84.8752,2.38,8.6,1111122 
NERRS,ioos:station:NOAA.NERRS:apaebwq:1,2016-06-07T13:45:00Z,29.7858,-84.8752,2.33,8.5,1111122 
NERRS,ioos:station:NOAA.NERRS:apaebwq:1,2016-06-07T14:45:00Z,29.7858,-84.8752,2.27,8.3,1111122 
NERRS,ioos:station:NOAA.NERRS:apaebwq:1,2016-06-07T15:45:00Z,29.7858,-84.8752,2.24,8.0,1111122 
NERRS,ioos:station:NOAA.NERRS:apaebwq:1,2016-06-07T16:45:00Z,29.7858,-84.8752,2.22,8.0,1111122 
NERRS,ioos:station:NOAA.NERRS:apaebwq:1,2016-06-07T17:45:00Z,29.7858,-84.8752,2.23,7.7,1111122 
NERRS,ioos:station:NOAA.NERRS:apaebwq:1,2016-06-07T18:45:00Z,29.7858,-84.8752,2.25,7.3,1111122 
NERRS,ioos:station:NOAA.NERRS:apaebwq:1,2016-06-07T19:45:00Z,29.7858,-84.8752,2.28,6.9,1111122 
NERRS,ioos:station:NOAA.NERRS:apaebwq:1,2016-06-07T20:45:00Z,29.7858,-84.8752,2.32,6.4,1111122 
NERRS,ioos:station:NOAA.NERRS:apaebwq:1,2016-06-07T21:45:00Z,29.7858,-84.8752,2.32,6.2,1111122 
NERRS,ioos:station:NOAA.NERRS:apaebwq:1,2016-06-07T22:45:00Z,29.7858,-84.8752,2.24,7.3,1111122 
NERRS,ioos:station:NOAA.NERRS:apaebwq:1,2016-06-07T23:45:00Z,29.7858,-84.8752,2.13,4.9,1111122 
NERRS,ioos:station:NOAA.NERRS:apaebwq:1,2016-06-08T00:45:00Z,29.7858,-84.8752,1.99,3.2,1111122 
NERRS,ioos:station:NOAA.NERRS:apaebwq:1,2016-06-08T01:45:00Z,29.7858,-84.8752,1.87,2.8,1111122 
NERRS,ioos:station:NOAA.NERRS:apaebwq:1,2016-06-08T02:45:00Z,29.7858,-84.8752,1.77,2.7,1111122 
NERRS,ioos:station:NOAA.NERRS:apaebwq:1,2016-06-08T03:45:00Z,29.7858,-84.8752,1.66,2.5,1111122 
NERRS,ioos:station:NOAA.NERRS:apaebwq:1,2016-06-08T04:45:00Z,29.7858,-84.8752,1.58,2.4,1111122 
NERRS,ioos:station:NOAA.NERRS:apaebwq:1,2016-06-08T05:45:00Z,29.7858,-84.8752,1.55,2.3,1111122 
NERRS,ioos:station:NOAA.NERRS:apaebwq:1,2016-06-08T06:45:00Z,29.7858,-84.8752,1.59,2.3,1111122 
NERRS,ioos:station:NOAA.NERRS:apaebwq:1,2016-06-08T07:45:00Z,29.7858,-84.8752,1.73,2.7,1111122 
NERRS,ioos:station:NOAA.NERRS:apaebwq:1,2016-06-08T08:45:00Z,29.7858,-84.8752,1.89,2.6,1111122 
NERRS,ioos:station:NOAA.NERRS:apaebwq:1,2016-06-08T09:45:00Z,29.7858,-84.8752,2.03,2.9,1111122 
NERRS,ioos:station:NOAA.NERRS:apaebwq:1,2016-06-08T10:45:00Z,29.7858,-84.8752,2.15,3.2,1111122 
NERRS,ioos:station:NOAA.NERRS:apaebwq:1,2016-06-08T11:45:00Z,29.7858,-84.8752,2.21,3.1,1111122 
NERRS,ioos:station:NOAA.NERRS:apaebwq:1,2016-06-08T12:45:00Z,29.7858,-84.8752,2.21,3.2,1111122 
NERRS,ioos:station:NOAA.NERRS:apaebwq:1,2016-06-08T13:45:00Z,29.7858,-84.8752,2.18,3.2,1111122 
NERRS,ioos:station:NOAA.NERRS:apaebwq:1,2016-06-08T14:45:00Z,29.7858,-84.8752,2.09,3.3,1111122 
NERRS,ioos:station:NOAA.NERRS:apaebwq:1,2016-06-08T15:45:00Z,29.7858,-84.8752,2.03,3.2,1111122 
NERRS,ioos:station:NOAA.NERRS:apaebwq:1,2016-06-08T16:45:00Z,29.7858,-84.8752,2.01,3.2,1111122 
NERRS,ioos:station:NOAA.NERRS:apaebwq:1,2016-06-08T17:45:00Z,29.7858,-84.8752,2.02,3.2,1111122 
NERRS,ioos:station:NOAA.NERRS:apaebwq:1,2016-06-08T18:45:00Z,29.7858,-84.8752,2.06,3.2,1111122 
NERRS,ioos:station:NOAA.NERRS:apaebwq:1,2016-06-08T19:45:00Z,29.7858,-84.8752,2.14,3.3,1111122 
NERRS,ioos:station:NOAA.NERRS:apaebwq:1,2016-06-08T20:45:00Z,29.7858,-84.8752,2.23,3.2,1111122 
NERRS,ioos:station:NOAA.NERRS:apaebwq:1,2016-06-08T21:45:00Z,29.7858,-84.8752,2.27,3.3,1111122 
NERRS,ioos:station:NOAA.NERRS:apaebwq:1,2016-06-08T22:45:00Z,29.7858,-84.8752,2.23,3.2,1111122 
NERRS,ioos:station:NOAA.NERRS:apaebwq:1,2016-06-08T23:45:00Z,29.7858,-84.8752,2.13,3.0,1111122 
NERRS,ioos:station:NOAA.NERRS:apaebwq:1,2016-06-09T00:45:00Z,29.7858,-84.8752,1.99,2.8,1111122 
NERRS,ioos:station:NOAA.NERRS:apaebwq:1,2016-06-09T01:45:00Z,29.7858,-84.8752,1.87,2.8,1111122 
NERRS,ioos:station:NOAA.NERRS:apaebwq:1,2016-06-09T02:45:00Z,29.7858,-84.8752,1.76,2.6,1111122 
NERRS,ioos:station:NOAA.NERRS:apaebwq:1,2016-06-09T03:45:00Z,29.7858,-84.8752,1.66,2.4,1111122 
NERRS,ioos:station:NOAA.NERRS:apaebwq:1,2016-06-09T04:45:00Z,29.7858,-84.8752,1.57,2.3,1111122 
NERRS,ioos:station:NOAA.NERRS:apaebwq:1,2016-06-09T05:45:00Z,29.7858,-84.8752,1.5,2.2,1111122 
NERRS,ioos:station:NOAA.NERRS:apaebwq:1,2016-06-09T06:45:00Z,29.7858,-84.8752,1.49,2.1,1111122 
NERRS,ioos:station:NOAA.NERRS:apaebwq:1,2016-06-09T07:45:00Z,29.7858,-84.8752,1.57,2.2,1111122 
NERRS,ioos:station:NOAA.NERRS:apaebwq:1,2016-06-09T08:45:00Z,29.7858,-84.8752,1.71,2.4,1111122 
NERRS,ioos:station:NOAA.NERRS:apaebwq:1,2016-06-09T09:45:00Z,29.7858,-84.8752,1.85,2.6,1111122 
NERRS,ioos:station:NOAA.NERRS:apaebwq:1,2016-06-09T10:45:00Z,29.7858,-84.8752,1.97,3.7,1111122 
NERRS,ioos:station:NOAA.NERRS:apaebwq:1,2016-06-09T11:45:00Z,29.7858,-84.8752,2.08,3.5,1111122 
NERRS,ioos:station:NOAA.NERRS:apaebwq:1,2016-06-09T12:45:00Z,29.7858,-84.8752,2.13,3.5,1111122 
NERRS,ioos:station:NOAA.NERRS:apaebwq:1,2016-06-09T13:45:00Z,29.7858,-84.8752,2.13,3.6,1111122 
NERRS,ioos:station:NOAA.NERRS:apaebwq:1,2016-06-09T14:45:00Z,29.7858,-84.8752,2.08,3.6,1111122 
NERRS,ioos:station:NOAA.NERRS:apaebwq:1,2016-06-09T15:45:00Z,29.7858,-84.8752,2.0,3.5,1111122 
NERRS,ioos:station:NOAA.NERRS:apaebwq:1,2016-06-09T16:45:00Z,29.7858,-84.8752,1.95,3.5,1111122 
NERRS,ioos:station:NOAA.NERRS:apaebwq:1,2016-06-09T17:45:00Z,29.7858,-84.8752,1.94,3.6,1111122 
NERRS,ioos:station:NOAA.NERRS:apaebwq:1,2016-06-09T18:45:00Z,29.7858,-84.8752,1.94,3.5,1111122 
NERRS,ioos:station:NOAA.NERRS:apaebwq:1,2016-06-09T19:45:00Z,29.7858,-84.8752,2.01,3.4,1111122 
NERRS,ioos:station:NOAA.NERRS:apaebwq:1,2016-06-09T20:45:00Z,29.7858,-84.8752,2.11,3.2,1111122 
NERRS,ioos:station:NOAA.NERRS:apaebwq:1,2016-06-09T21:45:00Z,29.7858,-84.8752,2.17,4.3,1111122 
NERRS,ioos:station:NOAA.NERRS:apaebwq:1,2016-06-09T22:45:00Z,29.7858,-84.8752,2.18,7.4,1111122 
NERRS,ioos:station:NOAA.NERRS:apaebwq:1,2016-06-09T23:45:00Z,29.7858,-84.8752,2.15,8.0,1111122 
NERRS,ioos:station:NOAA.NERRS:apaebwq:1,2016-06-10T00:45:00Z,29.7858,-84.8752,2.09,8.5,1111122 
NERRS,ioos:station:NOAA.NERRS:apaebwq:1,2016-06-10T01:45:00Z,29.7858,-84.8752,1.97,8.8,1111122 
NERRS,ioos:station:NOAA.NERRS:apaebwq:1,2016-06-10T02:45:00Z,29.7858,-84.8752,1.85,8.8,1111122 
NERRS,ioos:station:NOAA.NERRS:apaebwq:1,2016-06-10T03:45:00Z,29.7858,-84.8752,1.75,8.9,1111122 
NERRS,ioos:station:NOAA.NERRS:apaebwq:1,2016-06-10T04:45:00Z,29.7858,-84.8752,1.67,9.1,1111122 
NERRS,ioos:station:NOAA.NERRS:apaebwq:1,2016-06-10T05:45:00Z,29.7858,-84.8752,1.6,9.4,1111122 
NERRS,ioos:station:NOAA.NERRS:apaebwq:1,2016-06-10T06:45:00Z,29.7858,-84.8752,1.57,9.4,1111122 
NERRS,ioos:station:NOAA.NERRS:apaebwq:1,2016-06-10T07:45:00Z,29.7858,-84.8752,1.61,9.4,1111122 
NERRS,ioos:station:NOAA.NERRS:apaebwq:1,2016-06-10T08:45:00Z,29.7858,-84.8752,1.71,9.3,1111122 
NERRS,ioos:station:NOAA.NERRS:apaebwq:1,2016-06-10T09:45:00Z,29.7858,-84.8752,1.84,9.0,1111122 
NERRS,ioos:station:NOAA.NERRS:apaebwq:1,2016-06-10T10:45:00Z,29.7858,-84.8752,1.97,8.5,1111122 
NERRS,ioos:station:NOAA.NERRS:apaebwq:1,2016-06-10T11:45:00Z,29.7858,-84.8752,2.09,8.1,1111122 
NERRS,ioos:station:NOAA.NERRS:apaebwq:1,2016-06-10T12:45:00Z,29.7858,-84.8752,2.18,8.2,1111122 
NERRS,ioos:station:NOAA.NERRS:apaebwq:1,2016-06-10T13:45:00Z,29.7858,-84.8752,2.19,8.4,1111122 
NERRS,ioos:station:NOAA.NERRS:apaebwq:1,2016-06-10T14:45:00Z,29.7858,-84.8752,2.13,8.8,1111122 
NERRS,ioos:station:NOAA.NERRS:apaebwq:1,2016-06-10T15:45:00Z,29.7858,-84.8752,2.05,8.6,1111122 
NERRS,ioos:station:NOAA.NERRS:apaebwq:1,2016-06-10T16:45:00Z,29.7858,-84.8752,2.0,8.8,1111122 
NERRS,ioos:station:NOAA.NERRS:apaebwq:1,2016-06-10T17:45:00Z,29.7858,-84.8752,1.97,8.7,1111122 
NERRS,ioos:station:NOAA.NERRS:apaebwq:1,2016-06-10T18:45:00Z,29.7858,-84.8752,1.92,8.7,1111122 
NERRS,ioos:station:NOAA.NERRS:apaebwq:1,2016-06-10T19:45:00Z,29.7858,-84.8752,1.9,8.5,1111122 
NERRS,ioos:station:NOAA.NERRS:apaebwq:1,2016-06-10T20:45:00Z,29.7858,-84.8752,1.95,8.4,1111122 
NERRS,ioos:station:NOAA.NERRS:apaebwq:1,2016-06-10T21:45:00Z,29.7858,-84.8752,2.07,8.6,1111122 
NERRS,ioos:station:NOAA.NERRS:apaebwq:1,2016-06-10T22:45:00Z,29.7858,-84.8752,2.15,7.7,1111122 
NERRS,ioos:station:NOAA.NERRS:apaebwq:1,2016-06-10T23:45:00Z,29.7858,-84.8752,2.15,7.7,1111122 
NERRS,ioos:station:NOAA.NERRS:apaebwq:1,2016-06-11T00:45:00Z,29.7858,-84.8752,2.1,7.7,1111122 
NERRS,ioos:station:NOAA.NERRS:apaebwq:1,2016-06-11T01:45:00Z,29.7858,-84.8752,2.02,7.7,1111122 
NERRS,ioos:station:NOAA.NERRS:apaebwq:1,2016-06-11T02:45:00Z,29.7858,-84.8752,1.95,7.7,1111122 
NERRS,ioos:station:NOAA.NERRS:apaebwq:1,2016-06-11T03:45:00Z,29.7858,-84.8752,1.88,7.7,1111122 
NERRS,ioos:station:NOAA.NERRS:apaebwq:1,2016-06-11T04:45:00Z,29.7858,-84.8752,1.82,7.6,1111122 
NERRS,ioos:station:NOAA.NERRS:apaebwq:1,2016-06-11T05:45:00Z,29.7858,-84.8752,1.73,7.6,1111122 
NERRS,ioos:station:NOAA.NERRS:apaebwq:1,2016-06-11T06:45:00Z,29.7858,-84.8752,1.7,7.6,1111122 
NERRS,ioos:station:NOAA.NERRS:apaebwq:1,2016-06-11T07:45:00Z,29.7858,-84.8752,1.69,7.4,1111122 
NERRS,ioos:station:NOAA.NERRS:apaebwq:1,2016-06-11T08:45:00Z,29.7858,-84.8752,1.73,7.0,1111122 
NERRS,ioos:station:NOAA.NERRS:apaebwq:1,2016-06-11T09:45:00Z,29.7858,-84.8752,1.86,4.2,1111122 
NERRS,ioos:station:NOAA.NERRS:apaebwq:1,2016-06-11T10:45:00Z,29.7858,-84.8752,2.01,4.1,1111122 
NERRS,ioos:station:NOAA.NERRS:apaebwq:1,2016-06-11T11:45:00Z,29.7858,-84.8752,2.14,3.7,1111122 
NERRS,ioos:station:NOAA.NERRS:apaebwq:1,2016-06-11T12:45:00Z,29.7858,-84.8752,2.21,3.6,1111122 
NERRS,ioos:station:NOAA.NERRS:apaebwq:1,2016-06-11T13:45:00Z,29.7858,-84.8752,2.26,3.9,1111122 